Weather observations for the past three days for
Hill City, Hill City Municipal Airport
Imperial (Metric)
Date Time (cdt) Wind (mph) Vis. (mi.) Weather Sky Cond. Temperature (ºF) Relative Humidity Wind Chill (°F) Heat Index (°F) Pressure Precipitation (in)
Air Dwpt 6 hour altimeter (in) sea level (mb) 1 hr 3 hr 6 hr
Max. Min.
15 02:53 SW 5 10.00 Fair CLR 73.4 0 0% 29.89 1009.2
15 01:53 Calm 10.00 Fair CLR 77 0 0% 29.92 1010.0
15 00:53 Calm 10.00 Fair CLR 78.8 0 102.9 78.1 0% 29.94 1010.8
14 23:53 NE 8 10.00 Fair CLR 80.6 0 0% 29.95 1011.1
14 22:53 E 8 10.00 Fair CLR 82.4 0 0% 29.96 1011.5
14 21:53 NE 8 10.00 Fair CLR 86 0 0% 29.94 1010.8
14 20:53 E 9 10.00 Fair CLR 91.4 0 0% 29.91 1009.9
14 19:53 E 8 10.00 Fair CLR 100.4 0 0% 29.91 1009.7
14 18:53 E 9 10.00 Fair CLR 102.2 0 104 91 0% 29.91 1010.0
14 17:53 SE 9 10.00 Fair CLR 104 0 0% 29.93 1010.3
14 16:53 Vrbl 5 10.00 Fair CLR 102.2 0 0% 29.95 1011.2
14 15:53 SE 8 10.00 Fair CLR 100.4 0 0% 29.97 1011.6
14 14:53 E 9 10.00 Fair CLR 98.6 0 0% 29.98 1012.1
14 13:53 E 12 10.00 Fair CLR 96.8 0 0% 29.99 1012.5
14 12:53 E 14 G 23 10.00 Fair CLR 91.4 0 93 68 0% 30.03 1013.9
14 10:53 NE 24 G 40 10.00 Fair and Breezy CLR 86 0 0% 30.08 1015.7
14 09:53 NE 23 G 33 10.00 Fair and Breezy CLR 82.4 0 0% 30.08 1015.6
14 08:53 NE 21 G 32 10.00 Fair and Breezy CLR 80.6 0 0% 30.07 1015.1
14 07:53 N 16 G 23 10.00 Fair CLR 77 0 0% 30.04 1014.0
14 06:53 W 6 9.00 Fair CLR 68 0 84.9 68 0% 29.97 1011.7
14 04:53 SW 6 10.00 Fair CLR 69.8 0 0% 29.96 1011.2
14 02:53 SW 7 10.00 Fair CLR 77 0 0% 29.95 1010.9
14 01:53 SW 8 10.00 Fair CLR 82.4 0 0% 29.97 1011.4
14 00:53 W 10 10.00 Fair CLR 84.2 0 105.1 82.9 0% 29.97 1011.3
13 23:53 SW 6 10.00 Fair CLR 84.2 0 0% 29.97 1011.4
13 22:53 S 8 10.00 Fair CLR 87.8 0 0% 29.97 1011.6
13 21:53 S 13 G 22 10.00 Fair CLR 91.4 0 0% 29.96 1011.2
13 20:53 S 12 G 23 10.00 Fair CLR 96.8 0 0% 29.94 1010.4
13 19:53 S 16 G 31 10.00 Fair CLR 100.4 0 0% 29.92 1009.8
13 18:53 S 18 G 33 10.00 Fair CLR 105.8 0 109 99 0% 29.91 1009.3
13 17:53 SW 21 G 35 10.00 Fair and Breezy CLR 109.4 0 0% 29.9 1009.1
13 16:53 S 8 10.00 Fair CLR 109.4 0 0% 29.91 1009.5
13 15:53 W 8 G 23 10.00 Fair CLR 107.6 0 0% 29.94 1010.3
13 14:53 SW 7 G 17 10.00 Fair CLR 104 0 0% 29.96 1011.0
13 13:53 SW 13 10.00 Fair CLR 100.4 0 0% 29.97 1011.6
13 12:53 S 14 10.00 Fair CLR 98.6 0 100 73.9 0% 29.95 1011.1
13 11:53 S 17 G 28 10.00 Fair CLR 96.8 0 0% 29.96 1011.4
13 10:53 S 9 10.00 Fair CLR 91.4 0 0% 29.98 1011.9
13 08:53 S 15 G 21 10.00 Fair CLR 82.4 0 0% 30 1012.8
13 07:53 SE 8 10.00 Fair CLR 78.8 0 0% 30 1012.6
13 06:53 E 6 10.00 Fair CLR 75.2 0 81 73.9 0% 29.98 1012.0
13 05:53 SE 5 10.00 Fair CLR 77 0 0% 29.96 1011.2
13 04:53 E 6 10.00 Fair CLR 77 0 0% 29.96 1011.2
13 03:53 Calm 10.00 Fair CLR 78.8 0 0% 29.95 1010.8
13 02:53 SE 5 10.00 Fair CLR 78.8 0 0% 29.96 1011.2
13 01:53 SE 7 10.00 Fair CLR 80.6 0 0% 29.97 1011.5
13 00:53 E 8 10.00 Fair CLR 78.8 0 100.9 78.1 0% 29.98 1012.0
12 23:53 E 7 10.00 Fair CLR 80.6 0 0% 29.97 1011.8
12 22:53 E 8 10.00 Fair CLR 84.2 0 0% 29.97 1012.0
12 21:53 E 10 10.00 Fair CLR 89.6 0 0% 29.96 1011.6
12 20:53 E 12 10.00 Fair CLR 93.2 0 0% 29.94 1011.1
12 19:53 E 13 10.00 Fair CLR 98.6 0 0% 29.93 1010.7
12 18:53 E 14 10.00 Fair CLR 100.4 0 105.1 96.1 0% 29.92 1010.2
12 17:53 E 8 10.00 Fair CLR 102.2 0 0% 29.92 1010.1
12 16:53 S 9 G 22 10.00 Fair CLR 105.8 0 0% 29.93 1010.2
12 15:53 SE 13 G 24 10.00 Fair CLR 104 0 0% 29.93 1010.5
12 14:53 SE 16 G 21 10.00 Fair CLR 100.4 0 0% 29.95 1011.1
12 13:53 SE 9 G 20 10.00 Fair CLR 100.4 0 0% 29.98 1012.2
12 12:53 Vrbl 6 G 17 10.00 Fair CLR 96.8 0 97 66 0% 30 1012.8
12 10:53 E 6 10.00 Fair CLR 86 0 0% 30 1013.2
12 09:53 E 9 10.00 Fair CLR 78.8 0 0% 30 1013.4
12 08:53 E 9 9.00 A Few Clouds FEW004 73.4 0 0% 30.01 1013.7
12 07:53 E 7 6.00 Fair with Haze CLR 71.6 0 0% 30.02 1013.8
12 06:53 E 7 3.00 Fog/Mist CLR 66.2 0 73.9 64.9 0% 30.01 1013.5
12 05:53 Calm 8.00 Fair CLR 66.2 0 0% 30 1013.2
12 03:53 Calm 10.00 Fair CLR 68 0 0% 29.99 1013.0
Date Time (cdt) Wind (mph) Vis. (mi.) Weather Sky Cond. Air Dwpt Max. Min. Relative Humidity Wind Chill (°F) Heat Index (°F) altimeter (in) sea level (mb) 1 hr 3 hr 6 hr
6 hour
Temperature (ºF) Pressure Precipitation (in)